Year,Month,Day,Hour,Minute,Value (Times are PST for temperature in C)
2008,07,12,00,00,17.70
2008,07,12,00,01,17.60
2008,07,12,00,02,17.60
2008,07,12,00,03,17.60
2008,07,12,00,04,17.60
2008,07,12,00,05,17.60
2008,07,12,00,06,17.60
2008,07,12,00,07,17.70
2008,07,12,00,08,17.80
2008,07,12,00,09,18.00
2008,07,12,00,10,18.10
2008,07,12,00,11,18.30
2008,07,12,00,12,18.40
2008,07,12,00,13,18.50
2008,07,12,00,14,18.60
2008,07,12,00,15,18.80
2008,07,12,00,16,19.00
2008,07,12,00,17,19.10
2008,07,12,00,18,19.30
2008,07,12,00,19,19.40
2008,07,12,00,20,19.60
2008,07,12,00,21,19.70
2008,07,12,00,22,19.80
2008,07,12,00,23,19.80
2008,07,12,00,24,19.90
2008,07,12,00,25,19.90
2008,07,12,00,26,19.90
2008,07,12,00,27,19.90
2008,07,12,00,28,19.90
2008,07,12,00,29,19.90
2008,07,12,00,30,20.00
2008,07,12,00,31,20.00
2008,07,12,00,32,20.00
2008,07,12,00,33,20.00
2008,07,12,00,34,20.00
2008,07,12,00,35,20.00
2008,07,12,00,36,20.00
2008,07,12,00,37,20.00
2008,07,12,00,38,20.10
2008,07,12,00,39,20.10
2008,07,12,00,40,20.10
2008,07,12,00,41,20.10
2008,07,12,00,42,20.10
2008,07,12,00,43,20.10
2008,07,12,00,44,20.10
2008,07,12,00,45,20.10
2008,07,12,00,46,20.10
2008,07,12,00,47,20.10
2008,07,12,00,48,20.20
2008,07,12,00,49,20.20
2008,07,12,00,50,20.20
2008,07,12,00,51,20.20
2008,07,12,00,52,20.20
2008,07,12,00,53,20.20
2008,07,12,00,54,20.10
2008,07,12,00,55,20.10
2008,07,12,00,56,20.10
2008,07,12,00,57,20.00
2008,07,12,00,58,20.00
2008,07,12,00,59,20.00
2008,07,12,01,00,20.00
2008,07,12,01,01,19.90
2008,07,12,01,02,19.90
2008,07,12,01,03,19.90
2008,07,12,01,04,19.90
2008,07,12,01,05,19.90
2008,07,12,01,06,19.90
2008,07,12,01,07,19.90
2008,07,12,01,08,19.90
2008,07,12,01,09,19.90
2008,07,12,01,10,19.90
2008,07,12,01,11,19.90
2008,07,12,01,12,20.00
2008,07,12,01,13,20.00
2008,07,12,01,14,20.00
2008,07,12,01,15,20.10
2008,07,12,01,16,20.10
2008,07,12,01,17,20.10
2008,07,12,01,18,20.10
2008,07,12,01,19,20.10
2008,07,12,01,20,20.10
2008,07,12,01,21,20.10
2008,07,12,01,22,20.20
2008,07,12,01,23,20.20
2008,07,12,01,24,20.20
2008,07,12,01,25,20.20
2008,07,12,01,26,20.20
2008,07,12,01,27,20.20
2008,07,12,01,28,20.20
2008,07,12,01,29,20.20
2008,07,12,01,30,20.20
2008,07,12,01,31,20.20
2008,07,12,01,32,20.10
2008,07,12,01,33,20.10
2008,07,12,01,34,20.10
2008,07,12,01,35,20.10
2008,07,12,01,36,20.10
2008,07,12,01,37,20.20
2008,07,12,01,38,20.20
2008,07,12,01,39,20.20
2008,07,12,01,40,20.20
2008,07,12,01,41,20.20
2008,07,12,01,42,20.20
2008,07,12,01,43,20.20
2008,07,12,01,44,20.20
2008,07,12,01,45,20.20
2008,07,12,01,46,20.20
2008,07,12,01,47,20.20
2008,07,12,01,48,20.20
2008,07,12,01,49,20.20
2008,07,12,01,50,20.20
2008,07,12,01,51,20.20
2008,07,12,01,52,20.20
2008,07,12,01,53,20.20
2008,07,12,01,54,20.10
2008,07,12,01,55,20.00
2008,07,12,01,56,19.90
2008,07,12,01,57,19.60
2008,07,12,01,58,19.30
2008,07,12,01,59,19.00
2008,07,12,02,00,18.90
2008,07,12,02,01,18.90
2008,07,12,02,02,18.80
2008,07,12,02,03,18.70
2008,07,12,02,04,18.70
2008,07,12,02,05,18.70
2008,07,12,02,06,18.60
2008,07,12,02,07,18.60
2008,07,12,02,08,18.60
2008,07,12,02,09,18.60
2008,07,12,02,10,18.60
2008,07,12,02,11,18.50
2008,07,12,02,12,18.40
2008,07,12,02,13,18.40
2008,07,12,02,14,18.30
2008,07,12,02,15,18.30
2008,07,12,02,16,18.30
2008,07,12,02,17,18.30
2008,07,12,02,18,18.20
2008,07,12,02,19,18.30
2008,07,12,02,20,18.50
2008,07,12,02,21,18.70
2008,07,12,02,22,18.80
2008,07,12,02,23,18.90
2008,07,12,02,24,19.00
2008,07,12,02,25,19.10
2008,07,12,02,26,19.20
2008,07,12,02,27,19.30
2008,07,12,02,28,19.20
2008,07,12,02,29,19.00
2008,07,12,02,30,18.90
2008,07,12,02,31,18.90
2008,07,12,02,32,18.80
2008,07,12,02,33,18.80
2008,07,12,02,34,18.70
2008,07,12,02,35,18.60
2008,07,12,02,36,18.60
2008,07,12,02,37,18.60
2008,07,12,02,38,18.60
2008,07,12,02,39,18.60
2008,07,12,02,40,18.70
2008,07,12,02,41,18.80
2008,07,12,02,42,18.80
2008,07,12,02,43,18.90
2008,07,12,02,44,18.90
2008,07,12,02,45,18.90
2008,07,12,02,46,18.90
2008,07,12,02,47,18.90
2008,07,12,02,48,19.00
2008,07,12,02,49,19.10
2008,07,12,02,50,19.20
2008,07,12,02,51,19.30
2008,07,12,02,52,19.40
2008,07,12,02,53,19.50
2008,07,12,02,54,19.60
2008,07,12,02,55,19.70
2008,07,12,02,56,19.70
2008,07,12,02,57,19.80
2008,07,12,02,58,19.80
2008,07,12,02,59,19.90
2008,07,12,03,00,19.90
2008,07,12,03,01,19.90
2008,07,12,03,02,19.90
2008,07,12,03,03,19.90
2008,07,12,03,04,19.90
2008,07,12,03,05,19.90
2008,07,12,03,06,19.90
2008,07,12,03,07,19.90
2008,07,12,03,08,19.90
2008,07,12,03,09,19.90
2008,07,12,03,10,19.90
2008,07,12,03,11,19.90
2008,07,12,03,12,19.90
2008,07,12,03,13,19.90
2008,07,12,03,14,19.90
2008,07,12,03,15,19.90
2008,07,12,03,16,19.90
2008,07,12,03,17,19.90
2008,07,12,03,18,19.90
2008,07,12,03,19,19.90
2008,07,12,03,20,19.90
2008,07,12,03,21,19.90
2008,07,12,03,22,19.90
2008,07,12,03,23,19.80
2008,07,12,03,24,19.80
2008,07,12,03,25,19.80
2008,07,12,03,26,19.70
2008,07,12,03,27,19.70
2008,07,12,03,28,19.70
2008,07,12,03,29,19.60
2008,07,12,03,30,19.60
2008,07,12,03,31,19.60
2008,07,12,03,32,19.50
2008,07,12,03,33,19.50
2008,07,12,03,34,19.40
2008,07,12,03,35,19.30
2008,07,12,03,36,19.30
2008,07,12,03,37,19.20
2008,07,12,03,38,19.20
2008,07,12,03,39,19.20
2008,07,12,03,40,19.10
2008,07,12,03,41,19.10
2008,07,12,03,42,19.10
2008,07,12,03,43,19.00
2008,07,12,03,44,19.00
2008,07,12,03,45,18.90
2008,07,12,03,46,18.90
2008,07,12,03,47,18.90
2008,07,12,03,48,18.80
2008,07,12,03,49,18.80
2008,07,12,03,50,18.70
2008,07,12,03,51,18.70
2008,07,12,03,52,18.60
2008,07,12,03,53,18.60
2008,07,12,03,54,18.50
2008,07,12,03,55,18.40
2008,07,12,03,56,18.40
2008,07,12,03,57,18.30
2008,07,12,03,58,18.30
2008,07,12,03,59,18.20
2008,07,12,04,00,18.20
2008,07,12,04,01,18.10
2008,07,12,04,02,18.10
2008,07,12,04,03,18.10
2008,07,12,04,04,18.10
2008,07,12,04,05,18.10
2008,07,12,04,06,18.00
2008,07,12,04,07,18.00
2008,07,12,04,08,18.00
2008,07,12,04,09,17.90
2008,07,12,04,10,17.90
2008,07,12,04,11,17.90
2008,07,12,04,12,17.90
2008,07,12,04,13,17.90
2008,07,12,04,14,17.80
2008,07,12,04,15,17.80
2008,07,12,04,16,17.70
2008,07,12,04,17,17.60
2008,07,12,04,18,17.50
2008,07,12,04,19,17.30
2008,07,12,04,20,17.20
2008,07,12,04,21,17.10
2008,07,12,04,22,16.90
2008,07,12,04,23,16.80
2008,07,12,04,24,16.80
2008,07,12,04,25,16.70
2008,07,12,04,26,16.60
2008,07,12,04,27,16.60
2008,07,12,04,28,16.50
2008,07,12,04,29,16.50
2008,07,12,04,30,16.40
2008,07,12,04,31,16.40
2008,07,12,04,32,16.40
2008,07,12,04,33,16.40
2008,07,12,04,34,16.40
2008,07,12,04,35,16.40
2008,07,12,04,36,16.40
2008,07,12,04,37,16.40
2008,07,12,04,38,16.40
2008,07,12,04,39,16.40
2008,07,12,04,40,16.40
2008,07,12,04,41,16.40
2008,07,12,04,42,16.40
2008,07,12,04,43,16.40
2008,07,12,04,44,16.40
2008,07,12,04,45,16.40
2008,07,12,04,46,16.40
2008,07,12,04,47,16.30
2008,07,12,04,48,16.30
2008,07,12,04,49,16.30
2008,07,12,04,50,16.20
2008,07,12,04,51,16.20
2008,07,12,04,52,16.10
2008,07,12,04,53,16.10
2008,07,12,04,54,16.10
2008,07,12,04,55,16.10
2008,07,12,04,56,16.00
2008,07,12,04,57,16.00
2008,07,12,04,58,16.00
2008,07,12,04,59,16.00
2008,07,12,05,00,16.10
2008,07,12,05,01,16.10
2008,07,12,05,02,16.10
2008,07,12,05,03,16.10
2008,07,12,05,04,16.20
2008,07,12,05,05,16.20
2008,07,12,05,06,16.20
2008,07,12,05,07,16.20
2008,07,12,05,08,16.20
2008,07,12,05,09,16.20
2008,07,12,05,10,16.30
2008,07,12,05,11,16.30
2008,07,12,05,12,16.20
2008,07,12,05,13,16.20
2008,07,12,05,14,16.20
2008,07,12,05,15,16.20
2008,07,12,05,16,16.20
2008,07,12,05,17,16.20
2008,07,12,05,18,16.10
2008,07,12,05,19,16.10
2008,07,12,05,20,16.10
2008,07,12,05,21,16.10
2008,07,12,05,22,16.10
2008,07,12,05,23,16.10
2008,07,12,05,24,16.10
2008,07,12,05,25,16.10
2008,07,12,05,26,16.10
2008,07,12,05,27,16.10
2008,07,12,05,28,16.10
2008,07,12,05,29,16.10
2008,07,12,05,30,16.10
2008,07,12,05,31,16.10
2008,07,12,05,32,16.10
2008,07,12,05,33,16.10
2008,07,12,05,34,16.00
2008,07,12,05,35,16.00
2008,07,12,05,36,16.00
2008,07,12,05,37,16.00
2008,07,12,05,38,16.00
2008,07,12,05,39,16.00
2008,07,12,05,40,16.00
2008,07,12,05,41,16.00
2008,07,12,05,42,16.00
2008,07,12,05,43,16.10
2008,07,12,05,44,16.10
2008,07,12,05,45,16.10
2008,07,12,05,46,16.10
2008,07,12,05,47,16.10
2008,07,12,05,48,16.10
2008,07,12,05,49,16.10
2008,07,12,05,50,16.10
2008,07,12,05,51,16.10
2008,07,12,05,52,16.10
2008,07,12,05,53,16.10
2008,07,12,05,54,16.10
2008,07,12,05,55,16.00
2008,07,12,05,56,16.00
2008,07,12,05,57,16.00
2008,07,12,05,58,16.00
2008,07,12,05,59,16.10
2008,07,12,06,00,16.10
2008,07,12,06,01,16.10
2008,07,12,06,02,16.10
2008,07,12,06,03,16.20
2008,07,12,06,04,16.20
2008,07,12,06,05,16.30
2008,07,12,06,06,16.30
2008,07,12,06,07,16.30
2008,07,12,06,08,16.30
2008,07,12,06,09,16.30
2008,07,12,06,10,16.30
2008,07,12,06,11,16.40
2008,07,12,06,12,16.40
2008,07,12,06,13,16.50
2008,07,12,06,14,16.50
2008,07,12,06,15,16.50
2008,07,12,06,16,16.50
2008,07,12,06,17,16.50
2008,07,12,06,18,16.50
2008,07,12,06,19,16.60
2008,07,12,06,20,16.60
2008,07,12,06,21,16.60
2008,07,12,06,22,16.60
2008,07,12,06,23,16.60
2008,07,12,06,24,16.70
2008,07,12,06,25,16.70
2008,07,12,06,26,16.80
2008,07,12,06,27,16.80
2008,07,12,06,28,16.90
2008,07,12,06,29,16.90
2008,07,12,06,30,16.90
2008,07,12,06,31,16.90
2008,07,12,06,32,16.90
2008,07,12,06,33,16.90
2008,07,12,06,34,16.90
2008,07,12,06,35,17.00
2008,07,12,06,36,17.00
2008,07,12,06,37,17.00
2008,07,12,06,38,17.10
2008,07,12,06,39,17.10
2008,07,12,06,40,17.10
2008,07,12,06,41,17.10
2008,07,12,06,42,17.10
2008,07,12,06,43,17.10
2008,07,12,06,44,17.10
2008,07,12,06,45,17.20
2008,07,12,06,46,17.20
2008,07,12,06,47,17.20
2008,07,12,06,48,17.20
2008,07,12,06,49,17.20
2008,07,12,06,50,17.20
2008,07,12,06,51,17.20
2008,07,12,06,52,17.20
2008,07,12,06,53,17.20
2008,07,12,06,54,17.20
2008,07,12,06,55,17.20
2008,07,12,06,56,17.20
2008,07,12,06,57,17.20
2008,07,12,06,58,17.20
2008,07,12,06,59,17.20
2008,07,12,07,00,17.20
2008,07,12,07,01,17.30
2008,07,12,07,02,17.30
2008,07,12,07,03,17.30
2008,07,12,07,04,17.30
2008,07,12,07,05,17.30
2008,07,12,07,06,17.40
2008,07,12,07,07,17.40
2008,07,12,07,08,17.50
2008,07,12,07,09,17.50
2008,07,12,07,10,17.60
2008,07,12,07,11,17.70
2008,07,12,07,12,17.80
2008,07,12,07,13,17.80
2008,07,12,07,14,17.90
2008,07,12,07,15,17.90
2008,07,12,07,16,18.00
2008,07,12,07,17,18.10
2008,07,12,07,18,18.10
2008,07,12,07,19,18.30
2008,07,12,07,20,18.40
2008,07,12,07,21,18.50
2008,07,12,07,22,18.60
2008,07,12,07,23,18.70
2008,07,12,07,24,18.80
2008,07,12,07,25,18.90
2008,07,12,07,26,18.90
2008,07,12,07,27,18.80
2008,07,12,07,28,18.80
2008,07,12,07,29,18.80
2008,07,12,07,30,18.80
2008,07,12,07,31,18.80
2008,07,12,07,32,18.90
2008,07,12,07,33,18.90
2008,07,12,07,34,19.00
2008,07,12,07,35,19.00
2008,07,12,07,36,18.90
2008,07,12,07,37,18.90
2008,07,12,07,38,18.90
2008,07,12,07,39,18.90
2008,07,12,07,40,18.90
2008,07,12,07,41,18.90
2008,07,12,07,42,18.80
2008,07,12,07,43,18.80
2008,07,12,07,44,18.80
2008,07,12,07,45,18.70
2008,07,12,07,46,18.70
2008,07,12,07,47,18.70
2008,07,12,07,48,18.60
2008,07,12,07,49,18.60
2008,07,12,07,50,18.50
2008,07,12,07,51,18.50
2008,07,12,07,52,18.50
2008,07,12,07,53,18.50
2008,07,12,07,54,18.40
2008,07,12,07,55,18.40
2008,07,12,07,56,18.40
2008,07,12,07,57,18.40
2008,07,12,07,58,18.50
2008,07,12,07,59,18.60
2008,07,12,08,00,18.60
2008,07,12,08,01,18.60
2008,07,12,08,02,18.70
2008,07,12,08,03,18.70
2008,07,12,08,04,18.80
2008,07,12,08,05,18.80
2008,07,12,08,06,18.80
2008,07,12,08,07,18.80
2008,07,12,08,08,18.80
2008,07,12,08,09,18.80
2008,07,12,08,10,18.80
2008,07,12,08,11,18.90
2008,07,12,08,12,19.10
2008,07,12,08,13,19.20
2008,07,12,08,14,19.40
2008,07,12,08,15,19.50
2008,07,12,08,16,19.70
2008,07,12,08,17,19.80
2008,07,12,08,18,19.90
2008,07,12,08,19,20.00
2008,07,12,08,20,20.20
2008,07,12,08,21,20.30
2008,07,12,08,22,20.40
2008,07,12,08,23,20.50
2008,07,12,08,24,20.70
2008,07,12,08,25,20.80
2008,07,12,08,26,20.90
2008,07,12,08,27,20.90
2008,07,12,08,28,20.90
2008,07,12,08,29,20.90
2008,07,12,08,30,21.00
2008,07,12,08,31,21.00
2008,07,12,08,32,21.10
2008,07,12,08,33,21.20
2008,07,12,08,34,21.20
2008,07,12,08,35,21.20
2008,07,12,08,36,21.30
2008,07,12,08,37,21.40
2008,07,12,08,38,21.40
2008,07,12,08,39,21.50
2008,07,12,08,40,21.50
2008,07,12,08,41,21.50
2008,07,12,08,42,21.50
2008,07,12,08,43,21.50
2008,07,12,08,44,21.60
2008,07,12,08,45,21.60
2008,07,12,08,46,21.60
2008,07,12,08,47,21.60
2008,07,12,08,48,21.50
2008,07,12,08,49,21.40
2008,07,12,08,50,21.40
2008,07,12,08,51,21.40
2008,07,12,08,52,21.40
2008,07,12,08,53,21.50
2008,07,12,08,54,21.50
2008,07,12,08,55,21.30
2008,07,12,08,56,21.20
2008,07,12,08,57,21.30
2008,07,12,08,58,21.30
2008,07,12,08,59,21.40
2008,07,12,09,00,21.50
2008,07,12,09,01,21.50
2008,07,12,09,02,21.60
2008,07,12,09,03,21.60
2008,07,12,09,04,21.70
2008,07,12,09,05,21.80
2008,07,12,09,06,21.90
2008,07,12,09,07,22.00
2008,07,12,09,08,22.10
2008,07,12,09,09,22.20
2008,07,12,09,10,22.30
2008,07,12,09,11,22.40
2008,07,12,09,12,22.40
2008,07,12,09,13,22.50
2008,07,12,09,14,22.50
2008,07,12,09,15,22.50
2008,07,12,09,16,22.60
2008,07,12,09,17,22.60
2008,07,12,09,18,22.50
2008,07,12,09,19,22.50
2008,07,12,09,20,22.60
2008,07,12,09,21,22.50
2008,07,12,09,22,22.30
2008,07,12,09,23,22.10
2008,07,12,09,24,22.00
2008,07,12,09,25,21.90
2008,07,12,09,26,22.00
2008,07,12,09,27,22.10
2008,07,12,09,28,22.20
2008,07,12,09,29,22.20
2008,07,12,09,30,22.30
2008,07,12,09,31,22.40
2008,07,12,09,32,22.40
2008,07,12,09,33,22.50
2008,07,12,09,34,22.50
2008,07,12,09,35,22.50
2008,07,12,09,36,22.60
2008,07,12,09,37,22.70
2008,07,12,09,38,22.80
2008,07,12,09,39,22.80
2008,07,12,09,40,22.80
2008,07,12,09,41,22.80
2008,07,12,09,42,22.70
2008,07,12,09,43,22.70
2008,07,12,09,44,22.70
2008,07,12,09,45,22.80
2008,07,12,09,46,22.80
2008,07,12,09,47,22.80
2008,07,12,09,48,22.80
2008,07,12,09,49,22.80
2008,07,12,09,50,22.90
2008,07,12,09,51,23.00
2008,07,12,09,52,23.10
2008,07,12,09,53,23.10
2008,07,12,09,54,23.20
2008,07,12,09,55,23.20
2008,07,12,09,56,23.10
2008,07,12,09,57,23.00
2008,07,12,09,58,22.90
2008,07,12,09,59,22.80
2008,07,12,10,00,22.70
2008,07,12,10,01,22.70
2008,07,12,10,02,22.70
2008,07,12,10,03,22.70
2008,07,12,10,04,22.60
2008,07,12,10,05,22.60
2008,07,12,10,06,22.60
2008,07,12,10,07,22.50
2008,07,12,10,08,22.60
2008,07,12,10,09,22.70
2008,07,12,10,10,22.80
2008,07,12,10,11,22.80
2008,07,12,10,12,22.90
2008,07,12,10,13,22.90
2008,07,12,10,14,22.90
2008,07,12,10,15,22.90
2008,07,12,10,16,22.80
2008,07,12,10,17,22.80
2008,07,12,10,18,22.80
2008,07,12,10,19,22.70
2008,07,12,10,20,22.70
2008,07,12,10,21,22.70
2008,07,12,10,22,22.80
2008,07,12,10,23,22.90
2008,07,12,10,24,23.00
2008,07,12,10,25,23.10
2008,07,12,10,26,23.20
2008,07,12,10,27,23.20
2008,07,12,10,28,23.20
2008,07,12,10,29,23.20
2008,07,12,10,30,23.10
2008,07,12,10,31,23.20
2008,07,12,10,32,23.20
2008,07,12,10,33,23.30
2008,07,12,10,34,23.30
2008,07,12,10,35,23.30
2008,07,12,10,36,23.20
2008,07,12,10,37,23.20
2008,07,12,10,38,23.20
2008,07,12,10,39,23.10
2008,07,12,10,40,23.00
2008,07,12,10,41,22.90
2008,07,12,10,42,23.00
2008,07,12,10,43,23.00
2008,07,12,10,44,23.10
2008,07,12,10,45,23.10
2008,07,12,10,46,23.20
2008,07,12,10,47,23.10
2008,07,12,10,48,23.10
2008,07,12,10,49,23.20
2008,07,12,10,50,23.30
2008,07,12,10,51,23.40
2008,07,12,10,52,23.40
2008,07,12,10,53,23.20
2008,07,12,10,54,23.20
2008,07,12,10,55,23.20
2008,07,12,10,56,23.20
2008,07,12,10,57,23.30
2008,07,12,10,58,23.50
2008,07,12,10,59,23.60
2008,07,12,11,00,23.60
2008,07,12,11,01,23.70
2008,07,12,11,02,23.80
2008,07,12,11,03,23.80
2008,07,12,11,04,23.80
2008,07,12,11,05,23.80
2008,07,12,11,06,23.80
2008,07,12,11,07,23.70
2008,07,12,11,08,23.70
2008,07,12,11,09,23.70
2008,07,12,11,10,23.70
2008,07,12,11,11,23.70
2008,07,12,11,12,23.80
2008,07,12,11,13,23.70
2008,07,12,11,14,23.70
2008,07,12,11,15,23.70
2008,07,12,11,16,23.80
2008,07,12,11,17,23.80
2008,07,12,11,18,23.90
2008,07,12,11,19,23.90
2008,07,12,11,20,23.80
2008,07,12,11,21,23.70
2008,07,12,11,22,23.60
2008,07,12,11,23,23.70
2008,07,12,11,24,23.70
2008,07,12,11,25,23.80
2008,07,12,11,26,23.80
2008,07,12,11,27,23.90
2008,07,12,11,28,23.90
2008,07,12,11,29,24.00
2008,07,12,11,30,24.10
2008,07,12,11,31,24.20
2008,07,12,11,32,24.30
2008,07,12,11,33,24.30
2008,07,12,11,34,24.20
2008,07,12,11,35,24.30
2008,07,12,11,36,24.30
2008,07,12,11,37,24.30
2008,07,12,11,38,24.30
2008,07,12,11,39,24.40
2008,07,12,11,40,24.40
2008,07,12,11,41,24.30
2008,07,12,11,42,24.30
2008,07,12,11,43,24.30
2008,07,12,11,44,24.40
2008,07,12,11,45,24.40
2008,07,12,11,46,24.40
2008,07,12,11,47,24.50
2008,07,12,11,48,24.50
2008,07,12,11,49,24.60
2008,07,12,11,50,24.60
2008,07,12,11,51,24.70
2008,07,12,11,52,24.70
2008,07,12,11,53,24.70
2008,07,12,11,54,24.70
2008,07,12,11,55,24.70
2008,07,12,11,56,24.60
2008,07,12,11,57,24.60
2008,07,12,11,58,24.60
2008,07,12,11,59,24.60
2008,07,12,12,00,24.60
2008,07,12,12,01,24.60
2008,07,12,12,02,24.60
2008,07,12,12,03,24.60
2008,07,12,12,04,24.60
2008,07,12,12,05,24.50
2008,07,12,12,06,24.50
2008,07,12,12,07,24.50
2008,07,12,12,08,24.60
2008,07,12,12,09,24.60
2008,07,12,12,10,24.70
2008,07,12,12,11,24.80
2008,07,12,12,12,24.80
2008,07,12,12,13,24.90
2008,07,12,12,14,24.90
2008,07,12,12,15,24.90
2008,07,12,12,16,24.90
2008,07,12,12,17,25.00
2008,07,12,12,18,25.00
2008,07,12,12,19,25.10
2008,07,12,12,20,25.20
2008,07,12,12,21,25.20
2008,07,12,12,22,25.20
2008,07,12,12,23,25.30
2008,07,12,12,24,25.20
2008,07,12,12,25,25.10
2008,07,12,12,26,25.10
2008,07,12,12,27,25.10
2008,07,12,12,28,25.10
2008,07,12,12,29,25.10
2008,07,12,12,30,25.10
2008,07,12,12,31,25.10
2008,07,12,12,32,25.10
2008,07,12,12,33,25.10
2008,07,12,12,34,25.20
2008,07,12,12,35,25.10
2008,07,12,12,36,24.90
2008,07,12,12,37,24.60
2008,07,12,12,38,24.30
2008,07,12,12,39,24.10
2008,07,12,12,40,24.10
2008,07,12,12,41,24.00
2008,07,12,12,42,24.00
2008,07,12,12,43,24.00
2008,07,12,12,44,24.10
2008,07,12,12,45,24.10
2008,07,12,12,46,24.20
2008,07,12,12,47,24.30
2008,07,12,12,48,24.40
2008,07,12,12,49,24.50
2008,07,12,12,50,24.50
2008,07,12,12,51,24.60
2008,07,12,12,52,24.70
2008,07,12,12,53,24.80
2008,07,12,12,54,24.90
2008,07,12,12,55,25.00
2008,07,12,12,56,25.10
2008,07,12,12,57,25.20
2008,07,12,12,58,25.20
2008,07,12,12,59,25.10
2008,07,12,13,00,25.10
2008,07,12,13,01,25.20
2008,07,12,13,02,25.10
2008,07,12,13,03,25.00
2008,07,12,13,04,24.90
2008,07,12,13,05,24.90
2008,07,12,13,06,24.80
2008,07,12,13,07,24.80
2008,07,12,13,08,24.80
2008,07,12,13,09,24.70
2008,07,12,13,10,24.70
2008,07,12,13,11,24.80
2008,07,12,13,12,24.90
2008,07,12,13,13,25.10
2008,07,12,13,14,25.30
2008,07,12,13,15,25.40
2008,07,12,13,16,25.40
2008,07,12,13,17,25.40
2008,07,12,13,18,25.40
2008,07,12,13,19,25.40
2008,07,12,13,20,25.40
2008,07,12,13,21,25.30
2008,07,12,13,22,25.20
2008,07,12,13,23,25.00
2008,07,12,13,24,24.90
2008,07,12,13,25,24.70
2008,07,12,13,26,24.60
2008,07,12,13,27,24.60
2008,07,12,13,28,24.50
2008,07,12,13,29,24.50
2008,07,12,13,30,24.50
2008,07,12,13,31,24.60
2008,07,12,13,32,24.70
2008,07,12,13,33,24.70
2008,07,12,13,34,24.70
2008,07,12,13,35,24.50
2008,07,12,13,36,24.40
2008,07,12,13,37,24.30
2008,07,12,13,38,24.30
2008,07,12,13,39,24.30
2008,07,12,13,40,24.30
2008,07,12,13,41,24.40
2008,07,12,13,42,24.50
2008,07,12,13,43,24.60
2008,07,12,13,44,24.70
2008,07,12,13,45,24.70
2008,07,12,13,46,24.60
2008,07,12,13,47,24.60
2008,07,12,13,48,24.60
2008,07,12,13,49,24.50
2008,07,12,13,50,24.50
2008,07,12,13,51,24.40
2008,07,12,13,52,24.30
2008,07,12,13,53,24.30
2008,07,12,13,54,24.30
2008,07,12,13,55,24.50
2008,07,12,13,56,24.60
2008,07,12,13,57,24.70
2008,07,12,13,58,24.70
2008,07,12,13,59,24.60
2008,07,12,14,00,24.50
2008,07,12,14,01,24.50
2008,07,12,14,02,24.40
2008,07,12,14,03,24.50
2008,07,12,14,04,24.50
2008,07,12,14,05,24.30
2008,07,12,14,06,24.30
2008,07,12,14,07,24.40
2008,07,12,14,08,24.60
2008,07,12,14,09,24.60
2008,07,12,14,10,24.60
2008,07,12,14,11,24.40
2008,07,12,14,12,24.30
2008,07,12,14,13,24.20
2008,07,12,14,14,24.20
2008,07,12,14,15,24.30
2008,07,12,14,16,24.40
2008,07,12,14,17,24.60
2008,07,12,14,18,24.70
2008,07,12,14,19,24.70
2008,07,12,14,20,24.50
2008,07,12,14,21,24.40
2008,07,12,14,22,24.20
2008,07,12,14,23,24.10
2008,07,12,14,24,23.90
2008,07,12,14,25,23.80
2008,07,12,14,26,23.70
2008,07,12,14,27,23.80
2008,07,12,14,28,23.70
2008,07,12,14,29,23.60
2008,07,12,14,30,23.50
2008,07,12,14,31,23.40
2008,07,12,14,32,23.30
2008,07,12,14,33,23.20
2008,07,12,14,34,23.20
2008,07,12,14,35,23.30
2008,07,12,14,36,23.30
2008,07,12,14,37,23.40
2008,07,12,14,38,23.40
2008,07,12,14,39,23.40
2008,07,12,14,40,23.50
2008,07,12,14,41,23.50
2008,07,12,14,42,23.60
2008,07,12,14,43,23.60
2008,07,12,14,44,23.50
2008,07,12,14,45,23.60
2008,07,12,14,46,23.50
2008,07,12,14,47,23.50
2008,07,12,14,48,23.40
2008,07,12,14,49,23.40
2008,07,12,14,50,23.40
2008,07,12,14,51,23.40
2008,07,12,14,52,23.40
2008,07,12,14,53,23.60
2008,07,12,14,54,23.70
2008,07,12,14,55,23.80
2008,07,12,14,56,23.80
2008,07,12,14,57,23.90
2008,07,12,14,58,23.90
2008,07,12,14,59,23.90
2008,07,12,15,00,23.90
2008,07,12,15,01,23.90
2008,07,12,15,02,23.80
2008,07,12,15,03,23.70
2008,07,12,15,04,23.80
2008,07,12,15,05,23.90
2008,07,12,15,06,24.00
2008,07,12,15,07,24.10
2008,07,12,15,08,24.10
2008,07,12,15,09,24.10
2008,07,12,15,10,24.10
2008,07,12,15,11,24.10
2008,07,12,15,12,24.00
2008,07,12,15,13,24.00
2008,07,12,15,14,24.00
2008,07,12,15,15,24.10
2008,07,12,15,16,24.10
2008,07,12,15,17,24.10
2008,07,12,15,18,24.10
2008,07,12,15,19,24.10
2008,07,12,15,20,24.20
2008,07,12,15,21,24.20
2008,07,12,15,22,24.30
2008,07,12,15,23,24.30
2008,07,12,15,24,24.30
2008,07,12,15,25,24.30
2008,07,12,15,26,24.30
2008,07,12,15,27,24.30
2008,07,12,15,28,24.30
2008,07,12,15,29,24.40
2008,07,12,15,30,24.40
2008,07,12,15,31,24.40
2008,07,12,15,32,24.40
2008,07,12,15,33,24.30
2008,07,12,15,34,24.30
2008,07,12,15,35,24.30
2008,07,12,15,36,24.30
2008,07,12,15,37,24.30
2008,07,12,15,38,24.30
2008,07,12,15,39,24.30
2008,07,12,15,40,24.30
2008,07,12,15,41,24.40
2008,07,12,15,42,24.50
2008,07,12,15,43,24.60
2008,07,12,15,44,24.70
2008,07,12,15,45,24.80
2008,07,12,15,46,25.00
2008,07,12,15,47,25.00
2008,07,12,15,48,25.00
2008,07,12,15,49,24.90
2008,07,12,15,50,24.90
2008,07,12,15,51,25.00
2008,07,12,15,52,24.90
2008,07,12,15,53,24.90
2008,07,12,15,54,24.90
2008,07,12,15,55,24.90
2008,07,12,15,56,25.00
2008,07,12,15,57,25.00
2008,07,12,15,58,24.90
2008,07,12,15,59,25.00
2008,07,12,16,00,25.10
2008,07,12,16,01,25.00
2008,07,12,16,02,25.10
2008,07,12,16,03,25.10
2008,07,12,16,04,25.20
2008,07,12,16,05,25.30
2008,07,12,16,06,25.30
2008,07,12,16,07,25.30
2008,07,12,16,08,25.40
2008,07,12,16,09,25.40
2008,07,12,16,10,25.30
2008,07,12,16,11,25.40
2008,07,12,16,12,25.40
2008,07,12,16,13,25.40
2008,07,12,16,14,25.50
2008,07,12,16,15,25.50
2008,07,12,16,16,25.60
2008,07,12,16,17,25.60
2008,07,12,16,18,25.60
2008,07,12,16,19,25.60
2008,07,12,16,20,25.60
2008,07,12,16,21,25.60
2008,07,12,16,22,25.60
2008,07,12,16,23,25.60
2008,07,12,16,24,25.70
2008,07,12,16,25,25.70
2008,07,12,16,26,25.70
2008,07,12,16,27,25.70
2008,07,12,16,28,25.60
2008,07,12,16,29,25.50
2008,07,12,16,30,25.50
2008,07,12,16,31,25.50
2008,07,12,16,32,25.50
2008,07,12,16,33,25.60
2008,07,12,16,34,25.60
2008,07,12,16,35,25.70
2008,07,12,16,36,25.70
2008,07,12,16,37,25.80
2008,07,12,16,38,25.80
2008,07,12,16,39,25.90
2008,07,12,16,40,25.90
2008,07,12,16,41,25.90
2008,07,12,16,42,25.90
2008,07,12,16,43,25.90
2008,07,12,16,44,25.90
2008,07,12,16,45,26.00
2008,07,12,16,46,26.10
2008,07,12,16,47,26.00
2008,07,12,16,48,25.90
2008,07,12,16,49,25.90
2008,07,12,16,50,25.80
2008,07,12,16,51,25.80
2008,07,12,16,52,25.80
2008,07,12,16,53,25.90
2008,07,12,16,54,25.90
2008,07,12,16,55,26.00
2008,07,12,16,56,26.10
2008,07,12,16,57,26.20
2008,07,12,16,58,26.30
2008,07,12,16,59,26.30
2008,07,12,17,00,26.20
2008,07,12,17,01,26.20
2008,07,12,17,02,26.10
2008,07,12,17,03,26.10
2008,07,12,17,04,26.10
2008,07,12,17,05,26.20
2008,07,12,17,06,26.20
2008,07,12,17,07,26.20
2008,07,12,17,08,26.20
2008,07,12,17,09,26.20
2008,07,12,17,10,26.20
2008,07,12,17,11,26.30
2008,07,12,17,12,26.30
2008,07,12,17,13,26.40
2008,07,12,17,14,26.40
2008,07,12,17,15,26.30
2008,07,12,17,16,26.20
2008,07,12,17,17,26.20
2008,07,12,17,18,26.20
2008,07,12,17,19,26.20